Location: Buchberg
(46.9333°N, 15.8500°E)
Time: 09:11:20
(UTC+00:00)

Cosmos 2278 - Pass Details

Date: 14 July 2020
Orbit: 838 x 854 km, 71.1° (Epoch: 07 August)

Event Time Altitude Azimuth Distance (km) Brightness Sun altitude
Rises 02:00:33 0° 328° (NNW) 3,434 7.1 -10.6°
Reaches altitude 10° 02:03:06 10° 323° (NW) 2,494 6.3 -10.3°
Maximum altitude 02:08:32 47° 251° (WSW) 1,126 4.0 -9.7°
Drops below altitude 10° 02:13:57 10° 180° (S) 2,476 5.7 -9.0°
Sets 02:16:28 0° 174° (S) 3,406 6.5 -8.7°
